Location: Byszew
(52.1813°N, 19.2693°E)
Time: 21:23:28
(UTC+00:00)

Okean 1-7 - Pass Details

Date: 03 March 2021
Orbit: 589 x 619 km, 82.5° (Epoch: 15 April)

Event Time Altitude Azimuth Distance (km) Brightness Sun altitude
Rises 17:56:10 0° 350° (N) 2,903 6.8 -14.5°
Reaches altitude 10° 17:58:25 10° 351° (N) 1,989 5.9 -14.9°
Maximum altitude 18:02:50 79° 78° (ENE) 631 2.9 -15.6°
Drops below altitude 10° 18:07:11 10° 166° (SSE) 1,956 5.4 -16.2°
Enters shadow 18:08:53 - 167° (SSE) 2,651 6.1 -16.5°
